N0JVW-13 Weather Reports


time (UTC)temp
F
wind
direction
speed
knots
gust
knots
rain 1hr
in
rain 24hr
in
rain mn
in
humidity
%
barometer
mb
20260504031558 65 158 0.0 0.0 0.00 0.00 0.00 65 1007.1
20260504031016 65 158 0.0 0.0 0.00 0.00 0.00 65 1007.1
20260504030556 65 158 0.0 0.0 0.00 0.00 0.00 66 1007.0
20260504030040 66 158 0.0 0.0 0.00 0.00 0.00 65 1007.1
20260504025509 66 158 0.0 0.0 0.00 0.00 0.00 64 1007.1
20260504025054 66 158 0.0 0.0 0.00 0.00 0.00 63 1007.1
20260504024526 66 158 0.0 0.0 0.00 0.00 0.00 62 1007.2
20260504024001 67 158 0.0 0.0 0.00 0.00 0.00 62 1007.1
20260504023544 67 158 0.0 0.0 0.00 0.00 0.00 61 1007.0
20260504023019 67 158 0.0 0.0 0.00 0.00 0.00 60 1007.0
20260504022600 67 158 0.0 0.0 0.00 0.00 0.00 59 1007.0
20260504022035 68 158 0.0 0.0 0.00 0.00 0.00 58 1007.1
20260504021512 68 158 0.0 0.0 0.00 0.00 0.00 57 1007.0
20260504021052 68 158 0.0 0.0 0.00 0.00 0.00 57 1007.1
20260504020528 69 158 0.0 0.0 0.00 0.00 0.00 56 1007.0
20260504020004 69 158 0.0 0.0 0.00 0.00 0.00 55 1007.1
20260504015546 69 158 0.0 0.0 0.00 0.00 0.00 55 1007.1
20260504015022 70 158 0.0 0.0 0.00 0.00 0.00 53 1007.0
20260504014602 70 158 0.0 0.0 0.00 0.00 0.00 53 1007.0
20260504014037 71 158 0.0 0.0 0.00 0.00 0.00 54 1007.1
20260504013513 71 158 0.0 0.0 0.00 0.00 0.00 52 1007.0
20260504013059 72 158 0.0 0.0 0.00 0.00 0.00 52 1007.0
20260504012530 72 158 0.0 0.0 0.00 0.00 0.00 50 1007.0
20260504012006 73 158 0.0 0.0 0.00 0.00 0.00 49 1006.9
20260504011553 73 158 0.0 0.0 0.00 0.00 0.00 48 1006.9
20260504011022 73 158 0.0 0.0 0.00 0.00 0.00 47 1006.9
20260504010604 74 158 0.0 0.0 0.00 0.00 0.00 46 1006.8
20260504010044 74 158 0.0 0.0 0.00 0.00 0.00 45 1006.9
20260504005516 74 158 0.0 0.0 0.00 0.00 0.00 43 1007.0
20260504005056 74 158 0.0 0.0 0.00 0.00 0.00 42 1007.0
20260504004532 75 158 0.0 0.0 0.00 0.00 0.00 39 1007.0
20260504004009 75 158 0.0 0.0 0.00 0.00 0.00 38 1007.0
20260504003551 76 158 0.0 0.0 0.00 0.00 0.00 36 1006.9
20260504003026 76 158 0.0 0.0 0.00 0.00 0.00 36 1007.0
20260504002504 77 158 0.0 0.0 0.00 0.00 0.00 34 1007.0
20260504002044 77 158 0.0 0.0 0.00 0.00 0.00 34 1007.0
20260504001520 78 248 0.0 0.0 0.00 0.00 0.00 33 1007.0
20260504001101 78 248 0.0 0.9 0.00 0.00 0.00 32 1007.0
20260504000538 79 248 0.0 0.9 0.00 0.00 0.00 30 1007.0
20260504000013 79 248 0.0 2.6 0.00 0.00 0.00 30 1007.0
20260503235553 79 248 0.0 3.5 0.00 0.00 0.00 30 1007.0
20260503235029 80 172 0.9 3.5 0.00 0.00 0.00 29 1007.0
20260503234508 80 259 0.0 3.5 0.00 0.00 0.00 28 1007.1
20260503234046 80 259 0.0 0.9 0.00 0.00 0.00 29 1007.2
20260503233521 80 258 0.0 0.9 0.00 0.00 0.00 28 1007.2
20260503233102 80 258 0.0 1.7 0.00 0.00 0.00 27 1007.2
20260503232535 81 268 0.0 2.6 0.00 0.00 0.00 26 1007.2
20260503232012 81 285 0.0 3.5 0.00 0.00 0.00 27 1007.2
20260503231555 81 298 0.0 3.5 0.00 0.00 0.00 27 1007.1
20260503231028 81 305 0.0 2.6 0.00 0.00 0.00 27 1007.2
20260503230505 81 314 0.0 2.6 0.00 0.00 0.00 30 1007.2
20260503230046 81 276 0.0 2.6 0.00 0.00 0.00 29 1007.2
20260503225524 81 290 0.0 2.6 0.00 0.00 0.00 30 1007.3
20260503225105 81 264 0.0 2.6 0.00 0.00 0.00 31 1007.3
20260503224542 81 276 0.0 2.6 0.00 0.00 0.00 31 1007.4
20260503224017 81 299 0.9 4.3 0.00 0.00 0.00 30 1007.5
20260503223557 82 273 0.9 4.3 0.00 0.00 0.00 31 1007.5
20260503223035 81 293 0.0 2.6 0.00 0.00 0.00 33 1007.6
20260503222510 81 279 0.0 2.6 0.00 0.00 0.00 34 1007.6
20260503222051 81 277 0.0 2.6 0.00 0.00 0.00 33 1007.7
20260503221525 81 301 0.0 2.6 0.00 0.00 0.00 34 1007.7
20260503221003 81 315 0.0 3.5 0.00 0.00 0.00 35 1007.8
20260503220542 80 259 0.0 3.5 0.00 0.00 0.00 38 1007.8
20260503220019 80 328 0.0 2.6 0.00 0.00 0.00 38 1007.8
20260503215559 80 328 0.0 2.6 0.00 0.00 0.00 38 1007.9
20260503215034 81 272 0.0 6.1 0.00 0.00 0.00 37 1008.0
20260503214513 81 297 0.9 6.1 0.00 0.00 0.00 36 1008.0
20260503214055 81 305 0.0 0.9 0.00 0.00 0.00 39 1008.1
20260503213528 81 305 0.0 1.7 0.00 0.00 0.00 39 1008.1
20260503213004 80 308 0.0 2.6 0.00 0.00 0.00 40 1008.2
20260503212546 80 316 0.0 2.6 0.00 0.00 0.00 39 1008.2
20260503212022 80 264 0.0 4.3 0.00 0.00 0.00 38 1008.3
20260503211622 80 260 0.0 4.3 0.00 0.00 0.00 39 1008.5
20260503211040 80 314 0.0 1.7 0.00 0.00 0.00 38 1008.5
20260503210513 80 274 0.0 1.7 0.00 0.00 0.00 39 1008.6
20260503210054 80 269 0.0 2.6 0.00 0.00 0.00 39 1008.7
20260503205529 79 309 0.0 2.6 0.00 0.00 0.00 39 1008.8
20260503205005 79 156 0.0 1.7 0.00 0.00 0.00 41 1008.9
20260503204600 79 185 0.0 5.2 0.00 0.00 0.00 41 1009.0
20260503204020 79 262 0.0 5.2 0.00 0.00 0.00 41 1009.1
20260503203601 79 264 0.9 2.6 0.00 0.00 0.00 39 1009.2
20260503203040 79 301 0.0 3.5 0.00 0.00 0.00 43 1009.3
20260503202514 79 282 0.0 3.5 0.00 0.00 0.00 40 1009.4
20260503202056 79 245 0.0 2.6 0.00 0.00 0.00 42 1009.3
20260503201530 78 316 0.9 4.3 0.00 0.00 0.00 40 1009.4
20260503201005 78 295 0.9 3.5 0.00 0.00 0.00 39 1009.5
20260503200546 78 311 0.9 3.5 0.00 0.00 0.00 39 1009.7
20260503200023 78 295 0.9 2.6 0.00 0.00 0.00 40 1009.7
20260503195604 78 182 0.0 1.7 0.00 0.00 0.00 41 1009.8
20260503195039 78 274 0.0 2.6 0.00 0.00 0.00 41 1009.8
20260503194521 78 309 0.9 2.6 0.00 0.00 0.00 40 1009.9
20260503194058 78 258 0.0 2.6 0.00 0.00 0.00 42 1010.0
20260503193532 77 288 0.0 2.6 0.00 0.00 0.00 40 1010.1
20260503193008 77 168 0.0 5.2 0.00 0.00 0.00 43 1010.1
20260503192549 77 308 0.0 5.2 0.00 0.00 0.00 42 1010.2
20260503192023 77 322 0.9 2.6 0.00 0.00 0.00 40 1010.3
20260503191607 77 301 0.0 1.7 0.00 0.00 0.00 41 1010.3
20260503191038 76 285 0.0 1.7 0.00 0.00 0.00 42 1010.4
20260503190516 76 245 0.0 1.7 0.00 0.00 0.00 42 1010.4
20260503190056 76 295 0.0 2.6 0.00 0.00 0.00 41 1010.5
20260503185531 76 297 0.9 2.6 0.00 0.00 0.00 41 1010.6
20260503185005 76 265 0.0 2.6 0.00 0.00 0.00 41 1010.6
20260503184604 76 264 0.9 3.5 0.00 0.00 0.00 42 1010.7
20260503184022 76 283 0.0 3.5 0.00 0.00 0.00 44 1010.8
20260503183603 76 331 0.9 3.5 0.00 0.00 0.00 41 1010.8
20260503183045 76 283 0.0 2.6 0.00 0.00 0.00 42 1010.8
20260503182515 75 269 0.0 3.5 0.00 0.00 0.00 41 1010.8
20260503182056 75 254 0.0 3.5 0.00 0.00 0.00 45 1010.9
20260503181533 75 333 0.0 6.1 0.00 0.00 0.00 45 1011.0
20260503181008 75 327 1.7 6.1 0.00 0.00 0.00 43 1011.1
20260503180549 75 134 0.0 3.5 0.00 0.00 0.00 46 1011.2
20260503180030 74 306 0.0 3.5 0.00 0.00 0.00 45 1011.2
20260503175606 74 302 0.9 4.3 0.00 0.00 0.00 45 1011.3
20260503175040 74 248 1.7 4.3 0.00 0.00 0.00 44 1011.4
20260503174522 74 238 0.0 1.7 0.00 0.00 0.00 47 1011.4
20260503174059 73 333 0.0 2.6 0.00 0.00 0.00 48 1011.5
20260503173535 73 221 0.0 3.5 0.00 0.00 0.00 49 1011.8
20260503173013 73 323 0.0 3.5 0.00 0.00 0.00 47 1011.8
20260503172550 72 172 0.0 2.6 0.00 0.00 0.00 48 1011.9
20260503172028 72 148 0.0 5.2 0.00 0.00 0.00 51 1012.0
20260503171508 72 152 0.0 5.2 0.00 0.00 0.00 50 1012.0
20260503171044 71 195 0.9 4.3 0.00 0.00 0.00 51 1012.1
20260503170520 71 252 0.9 3.5 0.00 0.00 0.00 49 1012.4
20260503150535 64 154 0.9 5.2 0.00 0.00 0.00 54 1013.6
20260503131057 53 169 0.0 6.1 0.00 0.00 0.00 62 1014.5
20260503130533 53 146 0.0 3.5 0.00 0.00 0.00 63 1014.6
20260503110537 48 141 0.0 2.6 0.00 0.00 0.00 69 1014.8
20260503081604 48 157 0.9 2.6 0.00 0.00 0.00 69 1016.1
20260503081038 48 160 0.0 2.6 0.00 0.00 0.00 69 1016.1
20260503080516 48 150 0.0 1.7 0.00 0.00 0.00 69 1016.2
20260503072519 48 143 0.0 1.7 0.00 0.00 0.00 68 1016.6
20260503072057 49 148 0.0 1.7 0.00 0.00 0.00 68 1016.6
20260503071556 49 120 0.0 0.9 0.00 0.00 0.00 68 1016.6
20260503071008 49 155 0.0 1.7 0.00 0.00 0.00 67 1016.6
20260503070549 49 155 0.0 1.7 0.00 0.00 0.00 67 1016.7
20260503060126 49 146 0.0 0.9 0.00 0.00 0.00 68 1017.1
20260503055012 49 147 0.0 0.9 0.00 0.00 0.00 69 1017.2
20260503054559 49 147 0.0 0.9 0.00 0.00 0.00 69 1017.3
20260503054028 49 306 0.0 0.9 0.00 0.00 0.00 69 1017.4
20260503053504 49 312 0.0 0.0 0.00 0.00 0.00 69 1017.5
20260503053046 49 312 0.0 0.0 0.00 0.00 0.00 70 1017.5
20260503052522 49 312 0.0 0.0 0.00 0.00 0.00 70 1017.5
20260503052102 49 312 0.0 0.0 0.00 0.00 0.00 70 1017.6
20260503051546 49 312 0.0 0.0 0.00 0.00 0.00 69 1017.7
20260503051017 49 312 0.0 0.0 0.00 0.00 0.00 69 1017.7
20260503050554 49 312 0.0 0.0 0.00 0.00 0.00 70 1017.8
20260503050032 49 312 0.0 0.0 0.00 0.00 0.00 69 1017.8
20260503045508 49 312 0.0 0.0 0.00 0.00 0.00 69 1017.9
20260503045049 49 312 0.0 0.0 0.00 0.00 0.00 69 1017.8
20260503044525 49 312 0.0 0.0 0.00 0.00 0.00 69 1017.9
20260503044106 49 312 0.0 0.0 0.00 0.00 0.00 69 1018.0
20260503043541 49 312 0.0 0.0 0.00 0.00 0.00 68 1017.9
20260503043022 49 312 0.0 0.0 0.00 0.00 0.00 68 1018.0
20260503042558 49 312 0.0 0.0 0.00 0.00 0.00 68 1018.1
20260503042034 49 312 0.0 0.0 0.00 0.00 0.00 67 1018.1
20260503041514 49 312 0.0 0.0 0.00 0.00 0.00 66 1018.2
20260503041052 50 312 0.0 0.0 0.00 0.00 0.00 65 1018.2
20260503040530 50 312 0.0 0.0 0.00 0.00 0.00 64 1018.2
20260503040002 50 312 0.0 0.0 0.00 0.00 0.00 64 1018.3
20260503035542 50 312 0.0 0.0 0.00 0.00 0.00 64 1018.3
20260503035018 50 312 0.0 0.0 0.00 0.00 0.00 63 1018.2
20260503034600 50 312 0.0 0.0 0.00 0.00 0.00 62 1018.3
20260503034036 50 312 0.0 0.0 0.00 0.00 0.00 61 1018.4
20260503033512 50 312 0.0 0.0 0.00 0.00 0.00 60 1018.5
20260503033059 50 312 0.0 0.0 0.00 0.00 0.00 59 1018.5
20260503032528 51 312 0.0 0.0 0.00 0.00 0.00 59 1018.5
20260503032005 51 312 0.0 0.0 0.00 0.00 0.00 59 1018.5